Location: Poprad
(49.0500°N, 20.3000°E)
Time: 00:23:13
(UTC+01:00)

ISS - Pass Details

Date: 28 February 2019
Orbit: 406 x 411 km, 51.6° (Epoch: 21 March)

Event Time Altitude Azimuth Distance (km) Brightness Sun altitude
Exits shadow 03:56:50 18° 129° (SE) 1,066 -1.4 -24.7°
Drops below altitude 10° 03:58:48 10° 93° (E) 1,465 -0.1 -24.4°
Sets 04:01:17 0° 75° (ENE) 2,330 1.5 -24.0°
